Temperature
14 14 15 16 13 10 12 13 13 14 14 15 15 15 14 14 15 15 14 15 15 15 16 16 16 16 16 16 16 16 16 16 16 16 16 16 16 16 16 16 16 16 16 16 16 16 16 16 16
13 14 15 15 11 11 12 12 13 14 14 15 15 15 14 14 14 14 14 15 15 15 15 15 16 16 16 16 16 16 16 16 16 16 16 16 16 16 16 16 16 16 16 16 16 16 16 16 15
13 14 15 10 10 11 13 13 13 14 15 15 14 14 13 13 13 14 14 14 15 15 15 15 15 16 16 16 16 16 16 16 16 16 16 16 16 16 16 16 16 16 16 16 16 16 16 15 15
14 14 13 10 11 11 12 13 13 13 14 14 13 12 13 13 13 13 14 14 15 15 15 15 15 15 15 16 16 16 16 16 16 16 16 16 16 16 16 16 16 16 16 16 16 16 16 15 15
13 14 10 10 11 12 11 12 13 13 13 13 13 12 12 13 13 14 14 14 15 15 15 15 15 15 15 15 15 15 16 16 16 16 16 16 16 16 16 16 15 15 16 15 15 15 15 15 15
13 10 9 10 11 12 12 13 13 12 12 13 12 12 12 12 13 14 14 14 14 14 14 14 14 14 15 15 15 15 15 15 15 16 16 16 16 16 16 16 15 15 15 15 15 15 15 15 15
12 8 9 9 10 12 12 13 12 11 12 12 13 11 12 12 13 13 13 14 14 14 14 14 14 14 14 14 15 15 15 15 15 15 15 15 15 15 15 15 15 15 15 15 15 15 15 15 15
12 8 9 9 10 12 12 12 12 12 12 12 12 11 11 12 12 13 13 13 14 14 14 14 14 14 14 14 14 14 14 14 15 15 15 15 15 15 15 15 15 15 15 15 15 15 15 15 15
12 8 9 9 10 11 12 12 12 12 12 12 12 12 12 12 12 13 13 13 13 13 13 13 13 13 14 14 14 14 14 14 14 14 14 14 15 15 15 15 15 15 15 15 15 15 15 15 15
11 8 10 10 10 10 11 11 11 12 11 11 11 11 11 12 12 12 13 13 13 13 13 13 13 13 13 13 14 14 14 14 14 14 14 14 14 14 14 14 14 14 14 14 14 14 14 14 14
9 8 9 10 10 11 10 10 11 11 10 10 11 11 11 12 12 12 12 12 12 12 12 12 13 13 13 13 13 13 13 13 13 13 13 14 14 14 14 14 14 14 14 14 14 14 14 14 14
8 8 9 10 10 10 10 10 10 10 11 11 11 11 11 11 11 11 11 11 11 12 12 12 12 12 12 12 12 13 13 13 13 13 13 13 13 13 13 13 13 14 14 14 14 14 14 14 14
8 8 9 9 10 10 10 9 9 10 10 11 11 11 11 11 11 11 11 11 11 11 11 11 12 12 12 12 12 12 12 12 12 12 12 12 13 13 13 13 13 13 13 13 13 13 14 14 14
8 8 9 9 10 9 9 9 9 10 10 10 10 10 10 10 10 10 11 11 11 11 11 11 11 11 11 11 11 11 11 12 12 12 12 12 12 12 12 12 12 13 13 13 13 13 13 13 13
9 8 8 8 9 9 9 9 8 10 10 10 10 10 10 10 10 10 10 10 10 10 10 10 10 10 10 10 10 11 11 11 11 11 11 11 11 11 12 12 12 12 12 12 12 13 13 13 13
8 8 8 8 8 9 9 9 9 9 9 9 9 9 9 10 10 10 10 10 10 10 10 10 10 10 10 10 10 10 10 10 10 11 11 11 11 11 11 11 11 11 12 12 12 12 12 12 12
6 7 8 8 8 8 8 8 8 9 9 8 9 9 9 9 9 9 9 9 9 9 9 9 9 10 10 9 9 10 10 10 10 10 10 10 10 10 10 10 11 11 11 11 11 12 12 12 12
7 7 7 8 7 7 7 7 7 8 8 8 8 8 9 9 9 9 9 9 9 9 9 9 9 9 9 9 9 9 9 9 9 9 9 10 10 10 10 10 10 10 10 11 11 11 11 11 11
7 7 7 7 7 7 6 6 7 7 7 7 7 8 8 9 9 8 9 9 9 9 9 9 9 9 9 9 9 9 9 9 9 9 9 9 9 9 9 9 9 10 10 10 10 10 10 11 11
7 7 7 7 7 7 6 6 6 6 6 7 7 8 8 8 8 8 8 8 8 8 8 8 8 8 8 8 8 8 8 8 8 8 8 8 8 9 9 9 9 9 9 9 9 10 10 10 10
6 6 6 6 6 6 6 6 7 7 6 7 7 8 8 8 8 8 8 8 8 8 8 8 7 7 7 7 7 7 8 8 8 8 8 7 8 8 8 8 8 8 8 8 8 9 9 9 9
6 6 7 6 5 5 5 5 6 6 6 6 7 7 8 8 8 8 8 8 8 7 7 7 7 7 7 7 7 7 7 7 7 7 7 7 7 7 7 7 7 7 7 7 8 8 8 8 8
6 6 6 6 5 5 5 5 6 5 7 7 6 7 8 8 8 8 8 8 7 7 7 7 7 6 6 6 6 6 6 6 6 6 6 6 6 6 6 6 6 6 6 7 7 7 7 7 7
6 6 5 4 4 5 5 5 5 5 7 7 7 8 8 8 8 8 8 7 7 7 7 7 6 6 6 6 6 6 6 6 5 6 6 6 6 6 5 5 5 6 6 6 6 6 6 6 6
6 5 4 5 4 5 5 4 5 6 6 6 7 8 8 8 8 8 8 7 7 7 7 6 6 6 6 6 5 5 5 5 5 5 5 5 5 5 5 5 5 5 5 5 5 5 5 5 5
6 6 5 6 5 4 4 4 5 6 7 7 7 8 8 8 8 8 8 8 7 7 7 6 6 6 6 5 5 5 5 5 4 4 4 4 4 4 4 4 4 4 4 4 4 4 5 5 5
6 4 5 4 4 4 4 4 5 6 6 6 7 7 8 9 8 8 8 7 7 7 7 6 6 6 5 5 5 5 4 4 4 4 4 3 3 3 3 3 3 3 3 4 4 4 4 4 4
6 4 3 4 5 5 5 5 5 7 7 6 6 7 8 8 8 8 8 7 7 7 6 6 6 6 5 5 5 4 4 4 4 3 3 3 3 3 3 3 3 3 3 3 3 3 3 3 3
5 5 4 3 4 5 5 6 6 6 7 6 6 7 8 9 8 8 8 7 7 7 6 6 6 5 5 5 4 4 4 3 3 3 3 3 2 2 2 3 3 2 2 2 3 2 2 2 2
5 5 4 5 4 3 4 6 7 5 5 6 6 8 9 9 8 8 8 7 7 7 6 6 6 5 5 4 4 4 3 3 3 3 3 2 2 2 2 2 2 2 2 2 2 2 2 2 1
Wind_Speed
4 4 3 4 5 4 2 3 2 1 1 1 2 6 8 6 4 5 2 5 5 3 4 4 4 5 4 4 4 4 4 4 3 3 3 5 5 5 5 5 5 5 5 6 6 6 7 8 8
2 2 5 5 5 3 3 3 3 2 2 3 5 5 7 5 3 3 4 7 6 4 5 5 5 5 5 4 3 3 3 3 3 2 1 2 4 4 5 5 5 5 5 5 6 6 7 8 8
2 4 4 4 4 6 5 3 4 1 3 4 5 5 5 3 2 2 5 7 5 6 6 6 6 6 5 5 4 3 3 2 2 2 1 1 2 3 4 5 5 5 5 6 6 7 8 8 8
3 4 5 4 3 3 3 1 2 3 4 5 5 5 4 3 2 3 5 5 5 6 8 7 7 6 6 5 4 4 3 3 2 2 2 2 2 3 4 5 5 6 6 6 7 8 8 8 8
4 4 4 2 2 1 1 2 1 4 3 3 4 5 3 4 4 5 5 6 6 6 9 9 9 7 7 6 6 5 4 4 4 3 3 3 3 4 4 4 5 6 7 7 8 8 8 9 9
4 4 4 5 4 1 1 2 2 4 4 3 4 4 2 3 6 6 6 7 6 6 9 10 10 9 8 7 7 7 6 6 5 5 4 4 5 5 5 5 6 7 7 8 8 9 9 9 9
4 4 5 7 5 2 1 2 3 4 4 2 3 5 1 3 5 5 6 7 8 10 10 11 11 11 10 9 8 8 7 7 7 6 6 6 5 5 5 5 6 7 8 9 9 10 10 9 10
4 5 5 5 6 3 0 2 2 3 3 2 3 6 3 1 3 5 7 8 8 9 10 11 12 12 11 10 9 9 8 8 7 7 7 7 6 6 6 6 7 8 8 9 10 11 11 10 10
3 4 4 5 6 4 1 3 3 3 5 4 3 3 3 2 4 6 7 8 9 10 9 10 11 12 12 10 10 10 9 8 8 8 8 7 6 6 6 6 7 8 9 10 11 11 12 11 11
4 4 4 2 3 4 3 4 2 4 5 4 4 4 4 5 6 8 7 7 8 9 9 8 9 10 11 10 9 9 8 8 8 8 8 7 6 6 6 6 7 7 8 9 11 11 11 11 9
4 4 3 2 2 3 3 3 3 5 3 2 4 4 3 5 6 6 6 5 5 6 8 9 9 10 9 8 8 7 8 8 8 8 8 7 6 5 5 5 5 6 6 6 7 8 7 8 8
5 3 2 2 2 4 3 3 4 3 2 2 4 5 4 5 5 5 5 5 5 7 8 8 9 9 9 9 7 7 7 7 7 8 8 6 4 4 4 3 4 4 4 4 4 4 5 6 8
5 3 3 4 7 5 6 4 3 2 1 3 5 5 5 4 4 4 4 4 6 7 8 8 8 8 9 8 7 7 7 7 8 8 8 7 4 3 3 3 4 4 4 4 4 4 5 6 6
3 5 5 5 5 4 5 3 3 1 2 5 5 4 4 4 4 4 5 5 6 6 7 7 7 8 9 7 6 6 7 8 8 8 9 9 6 4 4 4 3 4 5 5 5 5 6 6 5
4 6 6 6 4 3 4 4 0 1 4 4 4 3 3 3 4 4 3 4 4 5 6 8 7 8 8 7 7 7 7 8 7 8 10 10 9 7 5 4 4 4 6 6 5 5 4 5 6
5 5 4 4 3 3 4 1 1 1 4 2 1 1 2 2 2 2 3 3 4 5 6 7 7 8 8 7 6 6 7 7 7 8 9 10 10 9 6 4 4 6 5 4 4 4 5 5 6
6 4 2 2 4 3 2 3 3 0 2 2 2 2 1 0 1 2 2 3 4 5 5 7 7 8 7 7 6 6 6 6 7 8 9 10 11 10 7 4 5 6 4 3 4 4 4 5 6
3 3 2 1 3 3 1 5 6 3 3 5 4 3 2 1 2 1 2 3 4 4 5 6 7 7 7 5 4 4 5 5 7 8 9 11 10 10 8 5 6 6 4 4 4 5 4 4 5
6 5 3 1 2 2 3 6 9 5 4 6 5 5 4 4 2 0 1 2 3 5 6 6 7 7 6 4 4 4 4 5 5 6 10 11 11 10 8 6 6 5 4 4 5 4 5 4 3
6 5 2 2 3 2 3 7 7 5 5 6 6 6 6 3 2 1 1 2 3 4 5 5 6 6 6 4 3 2 3 3 3 5 9 11 11 10 8 6 5 5 5 5 5 4 3 3 2
5 3 2 1 4 4 4 7 4 2 2 3 5 5 5 6 5 3 2 1 2 3 4 4 5 6 6 5 3 3 3 3 4 6 6 9 11 10 9 8 6 5 4 4 5 4 4 3 2
2 1 2 2 4 4 4 4 6 4 4 5 6 5 6 5 4 3 3 3 2 3 2 3 4 4 5 5 4 4 3 3 4 5 5 7 9 9 10 9 7 5 5 5 5 4 3 3 3
2 2 3 2 2 3 1 2 8 3 5 6 6 7 7 6 5 5 4 4 3 2 2 2 3 4 4 4 4 3 3 3 3 4 6 6 6 8 9 8 7 6 5 5 5 5 4 3 2
2 4 5 4 4 2 2 3 7 5 7 5 5 6 7 7 6 5 4 3 3 2 2 2 2 3 4 4 3 3 3 4 4 5 6 6 5 5 8 8 7 6 5 5 5 5 4 4 3
5 5 4 5 4 4 1 3 9 8 7 7 7 7 7 6 6 6 5 5 4 3 3 2 2 3 3 3 3 3 3 3 3 4 5 5 5 5 7 7 6 5 5 5 5 5 4 4 4
2 4 4 2 3 5 3 6 8 6 5 6 6 6 5 6 6 7 6 6 5 5 4 3 3 3 2 2 2 3 3 2 2 3 3 4 4 4 6 6 6 6 6 6 5 4 4 4 4
3 2 3 4 0 4 6 7 9 3 4 4 4 4 6 7 7 7 6 6 6 5 5 4 4 3 3 2 2 2 2 2 3 3 3 3 4 4 5 5 5 6 6 5 5 4 4 4 4
2 5 4 3 1 4 7 6 5 6 5 4 5 6 7 6 6 7 6 7 6 6 5 4 4 4 3 2 2 2 2 2 3 3 4 4 5 5 5 5 5 5 5 5 4 4 5 5 4
3 3 3 3 3 3 5 8 6 7 6 6 7 7 7 7 8 7 7 6 6 5 4 4 4 4 3 3 2 2 2 3 3 3 4 4 4 5 5 5 5 4 5 4 4 4 5 5 5
5 5 6 4 4 4 3 8 5 6 6 6 7 7 7 7 7 7 6 5 5 6 5 5 5 5 4 3 2 2 2 2 2 3 4 4 4 5 4 5 4 4 5 4 4 4 5 5 5
Wind_Direction
4 44 66 57 64 67 181 237 225 152 137 102 95 105 112 107 117 142 252 342 338 326 351 17 43 61 75 87 85 80 75 75 86 125 147 154 158 160 162 160 161 158 152 149 150 149 143 138 134
43 63 58 66 102 135 234 233 182 174 167 120 73 78 80 76 51 70 347 329 340 358 18 29 44 55 57 67 72 73 71 65 59 67 143 179 181 176 178 179 181 175 168 164 162 159 155 151 147
88 59 88 90 127 170 188 200 186 128 73 91 82 64 85 68 25 23 327 322 1 24 25 30 42 44 44 49 52 51 44 37 37 29 16 281 234 211 197 194 192 188 187 181 175 168 164 163 163
87 59 62 89 162 204 194 182 185 127 60 52 93 73 62 29 5 343 333 359 38 27 23 29 40 40 37 35 36 35 30 17 3 356 351 326 301 261 238 216 200 195 198 197 188 182 178 177 179
64 90 86 102 176 223 280 310 98 102 80 54 91 91 56 359 5 13 14 28 42 30 25 30 37 36 33 27 23 17 15 11 358 339 330 323 312 292 267 246 224 209 206 207 201 195 192 189 188
67 84 115 164 172 180 339 334 78 78 83 69 86 91 91 357 18 12 27 35 35 34 25 27 30 30 27 21 14 10 7 360 353 342 327 319 313 303 285 262 243 228 219 216 213 205 202 201 198
107 104 137 153 150 147 27 47 78 95 84 64 109 102 125 359 9 18 38 42 39 34 28 24 20 20 18 14 10 2 359 356 353 348 340 330 319 309 301 285 260 242 232 223 221 217 211 209 207
114 105 108 144 146 166 349 83 70 85 103 51 85 121 150 338 10 36 43 41 36 32 24 19 15 14 10 3 4 2 357 354 352 351 347 339 326 314 306 298 279 256 241 231 225 223 218 216 212
86 83 143 167 161 160 82 91 49 56 84 50 46 96 111 79 55 51 41 31 27 22 16 14 11 9 6 3 2 360 359 359 359 353 347 343 334 321 310 304 294 273 254 241 231 228 223 219 216
72 118 159 172 161 138 89 85 74 75 66 65 58 53 66 69 65 60 47 29 20 10 5 11 7 4 3 3 1 360 359 358 360 354 347 342 334 325 316 308 301 290 273 255 242 234 227 221 217
72 119 135 73 75 99 88 60 42 106 90 158 148 126 85 74 64 59 46 33 17 3 4 3 2 3 4 1 358 357 358 359 357 356 348 343 341 337 331 322 312 302 291 276 261 248 236 224 216
85 58 91 64 55 68 78 79 55 67 158 149 137 126 102 83 64 54 43 28 17 15 6 0 360 4 3 0 355 357 359 358 356 350 350 351 348 340 330 321 312 304 292 279 270 254 243 232 226
76 77 56 66 72 71 72 66 75 35 73 86 95 92 94 82 61 48 46 35 25 16 4 359 359 4 359 0 357 4 0 357 352 354 354 353 344 323 319 314 310 300 292 277 264 255 247 241 235
94 83 70 48 58 49 68 47 63 320 93 91 94 93 84 76 64 50 37 29 21 13 4 357 4 4 360 359 357 360 0 359 360 358 353 352 347 334 319 311 306 301 293 280 266 259 254 249 245
82 76 51 26 36 38 47 17 297 247 105 95 93 94 81 69 62 55 35 26 14 7 2 359 3 5 2 359 359 5 1 1 1 358 355 355 351 340 329 316 310 306 299 290 282 273 263 257 250
59 60 56 356 24 22 70 290 302 93 113 126 133 113 97 66 63 51 32 24 14 9 4 360 2 1 358 357 359 3 2 3 3 359 356 356 354 350 344 330 320 317 307 294 281 276 271 263 257
45 80 79 356 17 30 84 244 274 58 139 213 229 208 187 45 29 25 27 23 13 8 0 357 356 357 352 351 357 0 4 7 5 3 2 357 356 355 353 340 331 327 314 296 288 278 265 267 268
134 119 104 341 348 27 333 264 276 265 218 234 237 232 223 232 267 330 32 27 17 9 3 359 357 356 350 348 353 360 7 8 9 7 3 360 357 355 356 347 342 338 321 315 308 292 279 267 271
122 113 99 340 357 3 269 276 281 275 244 240 236 225 227 236 250 213 51 25 15 10 7 2 1 357 359 358 355 352 354 351 358 3 2 360 357 356 1 351 345 344 329 321 316 299 295 283 292
91 94 58 359 10 10 308 285 276 259 235 228 222 217 218 227 243 251 349 19 7 359 358 359 1 356 359 355 341 326 321 331 346 354 359 1 359 358 1 357 347 344 336 336 336 334 308 296 309
65 97 103 358 348 24 344 312 293 278 247 246 230 217 212 210 218 237 260 297 332 339 343 351 352 354 355 351 353 351 352 339 349 353 353 355 358 360 1 359 353 349 349 340 335 337 321 300 295
72 47 113 66 35 334 25 310 287 275 281 252 237 222 221 217 215 230 246 267 280 294 316 333 344 351 352 356 9 14 10 351 333 333 336 343 356 359 359 359 357 350 346 342 336 342 322 308 306
131 72 83 75 85 345 353 215 284 297 268 255 238 225 224 219 217 229 236 241 255 269 291 316 339 348 354 3 6 10 2 335 325 335 340 344 350 357 358 356 357 352 346 341 341 339 337 322 305
97 65 62 51 61 321 247 189 279 243 227 250 241 228 224 220 222 232 238 240 252 261 283 309 337 340 347 357 1 3 350 344 346 345 344 344 345 348 355 354 353 351 348 342 336 335 335 329 324
61 71 29 2 2 265 248 220 252 249 234 233 244 244 231 218 219 229 238 241 246 250 261 281 302 315 328 341 348 348 340 339 340 334 336 340 342 342 343 347 346 346 346 344 344 342 338 337 336
93 117 142 210 259 291 293 243 256 255 259 250 245 243 231 223 223 228 232 235 241 242 241 246 258 273 295 316 326 336 337 333 325 324 324 327 327 325 330 337 341 343 345 346 343 341 342 347 338
122 129 153 135 210 286 279 281 297 262 263 253 250 247 243 238 234 235 238 237 238 236 233 230 239 252 267 283 301 319 326 325 321 319 320 318 319 322 332 333 335 338 341 341 342 344 344 340 337
128 144 107 128 213 289 294 276 258 270 257 260 253 251 253 249 245 245 241 238 238 234 234 229 228 235 245 255 268 292 302 306 310 320 327 325 321 323 328 329 329 333 339 343 344 342 343 347 344
144 148 136 131 165 197 289 279 227 225 237 243 251 251 250 249 247 245 245 241 238 233 225 225 227 230 239 245 254 277 292 301 311 318 317 317 318 324 329 327 327 332 338 339 345 345 349 350 350
188 188 159 171 223 203 235 272 262 233 250 247 259 266 260 251 249 247 246 243 237 232 228 226 227 228 233 231 237 256 274 293 307 309 311 314 316 317 320 323 331 337 340 340 341 343 351 351 349
Height
1495 1497 1500 1503 1508 1521 1522 1518 1515 1513 1513 1513 1514 1515 1517 1522 1526 1533 1530 1528 1528 1529 1529 1530 1531 1531 1532 1532 1533 1533 1534 1534 1535 1535 1536 1536 1536 1537 1537 1537 1537 1537 1537 1537 1537 1537 1537 1537 1537
1495 1498 1501 1503 1514 1526 1522 1515 1513 1512 1511 1512 1514 1516 1518 1522 1525 1527 1527 1528 1528 1529 1529 1530 1530 1531 1531 1532 1533 1533 1534 1534 1534 1535 1535 1536 1536 1536 1536 1537 1537 1537 1537 1537 1537 1537 1537 1537 1538
1495 1498 1501 1505 1516 1520 1516 1512 1511 1510 1511 1512 1515 1517 1520 1523 1525 1526 1527 1527 1528 1528 1529 1529 1530 1530 1531 1531 1532 1532 1533 1533 1534 1534 1534 1535 1535 1535 1536 1536 1536 1536 1536 1536 1537 1537 1537 1537 1537
1496 1499 1502 1510 1514 1514 1511 1509 1509 1510 1511 1512 1514 1519 1522 1525 1526 1527 1527 1527 1528 1528 1528 1529 1529 1530 1530 1530 1531 1531 1532 1532 1532 1533 1533 1533 1534 1534 1534 1535 1535 1535 1535 1536 1536 1536 1536 1537 1537
1495 1497 1506 1514 1513 1512 1510 1509 1509 1509 1512 1514 1515 1519 1523 1525 1526 1526 1527 1527 1527 1527 1528 1528 1528 1529 1529 1529 1529 1530 1530 1531 1531 1531 1532 1532 1532 1533 1533 1533 1533 1534 1534 1534 1535 1535 1535 1536 1536
1495 1497 1511 1516 1513 1510 1509 1509 1509 1511 1513 1515 1516 1519 1524 1525 1526 1526 1526 1527 1527 1527 1527 1527 1527 1528 1528 1528 1528 1528 1528 1529 1529 1529 1530 1530 1530 1531 1531 1531 1532 1532 1532 1533 1533 1534 1534 1534 1535
1495 1501 1509 1513 1513 1511 1510 1509 1510 1512 1513 1516 1517 1520 1523 1525 1525 1526 1526 1526 1527 1526 1526 1526 1526 1526 1526 1526 1526 1526 1527 1527 1527 1527 1527 1528 1528 1528 1528 1529 1529 1530 1530 1531 1531 1532 1532 1532 1533
1493 1500 1509 1512 1512 1511 1510 1510 1511 1512 1515 1517 1518 1520 1523 1525 1525 1525 1526 1526 1526 1526 1526 1525 1525 1525 1525 1525 1525 1525 1525 1524 1524 1525 1525 1525 1525 1526 1526 1526 1526 1527 1528 1528 1529 1529 1530 1530 1531
1494 1503 1510 1510 1510 1510 1509 1510 1512 1514 1515 1516 1518 1520 1522 1524 1525 1525 1525 1525 1525 1525 1524 1524 1523 1523 1523 1523 1523 1523 1522 1522 1522 1522 1522 1522 1522 1523 1523 1523 1523 1524 1524 1525 1526 1527 1527 1528 1528
1495 1506 1507 1507 1507 1508 1509 1510 1513 1515 1516 1518 1519 1521 1522 1523 1524 1524 1524 1524 1524 1523 1523 1523 1522 1521 1521 1521 1520 1520 1520 1520 1520 1519 1519 1519 1519 1519 1519 1520 1520 1521 1521 1522 1522 1523 1524 1524 1525
1498 1504 1506 1506 1507 1508 1509 1511 1513 1514 1518 1518 1519 1520 1522 1523 1524 1524 1524 1523 1523 1523 1522 1522 1521 1520 1519 1518 1518 1517 1517 1517 1517 1517 1516 1516 1516 1516 1516 1516 1517 1517 1518 1518 1518 1519 1520 1521 1521
1501 1505 1506 1507 1508 1509 1510 1512 1514 1515 1518 1519 1519 1520 1521 1522 1523 1523 1523 1523 1523 1522 1522 1521 1520 1519 1518 1517 1516 1515 1514 1514 1514 1513 1513 1513 1513 1513 1513 1513 1513 1513 1514 1514 1515 1515 1516 1517 1517
1503 1507 1508 1509 1509 1511 1512 1514 1515 1517 1518 1519 1520 1520 1521 1522 1523 1523 1523 1523 1522 1521 1520 1519 1518 1517 1516 1515 1514 1513 1512 1511 1511 1510 1510 1510 1509 1509 1509 1509 1509 1510 1510 1510 1510 1511 1511 1512 1513
1506 1507 1509 1510 1511 1513 1514 1516 1517 1518 1519 1519 1519 1520 1521 1522 1522 1523 1522 1522 1521 1520 1519 1518 1517 1516 1514 1513 1512 1511 1510 1509 1509 1508 1507 1507 1506 1506 1506 1505 1506 1506 1506 1506 1506 1506 1506 1507 1507
1507 1510 1512 1514 1514 1515 1515 1518 1518 1518 1519 1519 1519 1520 1521 1521 1522 1522 1522 1521 1521 1520 1519 1518 1516 1515 1513 1512 1510 1509 1508 1507 1506 1505 1505 1504 1503 1503 1502 1502 1502 1502 1502 1501 1501 1501 1502 1502 1502
1509 1514 1518 1518 1516 1517 1520 1522 1519 1519 1519 1519 1519 1520 1520 1521 1521 1521 1521 1521 1520 1519 1518 1517 1515 1514 1512 1510 1509 1508 1506 1505 1504 1503 1502 1501 1500 1499 1499 1498 1498 1498 1497 1497 1497 1496 1496 1497 1497
1517 1520 1520 1520 1519 1518 1520 1522 1519 1519 1518 1518 1519 1519 1519 1520 1520 1520 1520 1520 1519 1518 1517 1515 1514 1512 1511 1509 1507 1506 1504 1503 1501 1500 1499 1498 1497 1496 1495 1494 1494 1493 1493 1492 1492 1492 1492 1491 1491
1520 1521 1522 1523 1521 1521 1522 1521 1518 1518 1518 1517 1517 1517 1518 1518 1519 1519 1519 1518 1518 1517 1515 1514 1512 1511 1509 1507 1506 1504 1503 1501 1499 1498 1496 1495 1494 1493 1492 1491 1490 1489 1488 1488 1487 1487 1487 1486 1486
1519 1522 1524 1524 1522 1523 1522 1521 1516 1515 1515 1514 1514 1515 1515 1516 1517 1517 1517 1517 1516 1515 1514 1512 1511 1509 1507 1505 1503 1501 1500 1498 1497 1495 1494 1492 1491 1489 1488 1487 1486 1485 1484 1483 1483 1482 1482 1482 1481
1520 1523 1525 1525 1523 1524 1524 1520 1514 1512 1512 1511 1511 1512 1513 1514 1515 1515 1516 1515 1514 1513 1512 1511 1509 1507 1505 1503 1502 1500 1498 1496 1495 1493 1491 1489 1488 1486 1485 1483 1482 1481 1480 1480 1479 1478 1477 1477 1477
1525 1526 1527 1527 1526 1525 1526 1519 1513 1510 1510 1509 1509 1510 1511 1512 1513 1513 1513 1513 1513 1512 1510 1509 1507 1506 1504 1502 1500 1498 1496 1494 1492 1490 1489 1487 1485 1483 1482 1481 1479 1478 1477 1476 1475 1475 1474 1473 1473
1527 1526 1526 1527 1530 1533 1532 1531 1516 1511 1510 1507 1507 1507 1508 1509 1510 1511 1511 1511 1511 1510 1509 1507 1506 1504 1502 1500 1498 1496 1494 1492 1490 1488 1486 1485 1483 1481 1479 1478 1477 1475 1474 1473 1472 1471 1471 1470 1469
1527 1526 1528 1529 1531 1535 1534 1535 1520 1512 1508 1504 1503 1504 1505 1507 1508 1509 1509 1509 1509 1508 1507 1506 1504 1503 1501 1499 1497 1495 1493 1491 1489 1487 1485 1483 1481 1479 1477 1476 1474 1472 1471 1470 1469 1468 1467 1466 1466
1526 1529 1531 1534 1536 1537 1532 1536 1523 1512 1504 1501 1500 1501 1502 1504 1505 1506 1507 1507 1506 1506 1505 1504 1502 1501 1499 1497 1495 1493 1491 1489 1487 1485 1483 1481 1479 1477 1475 1473 1472 1470 1468 1467 1466 1464 1464 1463 1462
1529 1535 1542 1539 1544 1537 1531 1532 1520 1502 1500 1499 1498 1498 1499 1501 1502 1503 1504 1504 1504 1503 1503 1501 1500 1498 1497 1495 1493 1491 1489 1487 1485 1483 1481 1478 1476 1474 1473 1471 1469 1468 1466 1464 1463 1461 1460 1460 1459
1531 1534 1541 1540 1543 1539 1533 1529 1510 1498 1496 1496 1496 1496 1497 1498 1499 1500 1501 1501 1501 1500 1500 1499 1497 1496 1495 1493 1491 1490 1487 1485 1483 1481 1479 1476 1474 1472 1471 1469 1467 1465 1463 1462 1460 1459 1457 1456 1455
1531 1536 1537 1544 1544 1545 1534 1524 1507 1496 1495 1494 1494 1495 1495 1496 1497 1497 1498 1498 1498 1497 1496 1496 1494 1493 1492 1491 1489 1487 1485 1483 1481 1479 1477 1475 1473 1471 1469 1466 1464 1462 1461 1459 1457 1456 1454 1453 1452
1531 1535 1541 1541 1539 1538 1531 1525 1512 1497 1494 1494 1493 1493 1493 1494 1494 1494 1494 1494 1494 1494 1493 1492 1491 1490 1489 1488 1487 1485 1483 1481 1479 1477 1475 1473 1471 1469 1467 1464 1462 1460 1458 1456 1455 1453 1452 1451 1449
1533 1534 1536 1542 1542 1542 1536 1516 1498 1495 1492 1492 1491 1491 1491 1491 1491 1491 1491 1491 1490 1490 1489 1489 1488 1487 1486 1485 1484 1482 1480 1478 1477 1475 1473 1470 1468 1466 1464 1462 1460 1458 1456 1454 1452 1451 1449 1448 1446
1529 1530 1535 1538 1538 1542 1540 1517 1491 1491 1489 1490 1489 1489 1489 1488 1488 1488 1487 1487 1486 1486 1485 1485 1484 1484 1483 1482 1481 1480 1478 1476 1474 1472 1470 1468 1466 1464 1462 1460 1458 1456 1454 1452 1450 1449 1447 1445 1444